ONEWEB-0090 (45427 NORAD) Tracking and Keplerian Element Data

This shows tracking and keplerian element data for the satellite.

Feedback or suggestion? Click here.




ElementValue
Catalog45427
NameONEWEB-0090
Epoch Orbit190
Epoch Day94.25001157
Epoch Year2020
RAAN134.4521
Inclination87.397
Eccentricity0.0025021
Argument of Perigee250.0992
Mean Anonmoly50.4313
Mean Motion15.3851179
Decay Rate-0.00060455
L11 45427U 20020D 20094.25001157 -.00060455 00000-0 -15909-2 0 9990
L22 45427 87.3970 134.4521 0025021 250.0992 50.4313 15.38511790 1901

Live tracking and technical data element details for ONEWEB-0090 (NORAD 45427). ONEWEB-0090 can be tracked NOW for your location showing map with azimuth and elevation plus other details from your city location.

Track the satellite on the map from your city or location and see movement details for azimuth, elevation, latitude, longitude, range, height, and movement on the map or in text.







IsCatalogInMostPopularTable: catalog: 45427, numindb: 3
Update: records affected: 1



GetName: 45427 ONEWEB-0090

Hit Count: updated at: Tue, 07 Apr 2020 16:03:05 GMT